Showing default

ISTSAT-1, 60238

Orbit data source: Space-Track

ISTSAT-1, 60238 is a Portuguese payload satellite in LEO that was launched on Tue, 09 Jul 2024 UTC via an ARIANE 62 launch vehicle from the French Guiana (FRGUI). Payload-class satellites include a variety of spacecraft equipped with specific instruments for various scientific and technological missions. These include communications satellites like Starlink; space stations such as the ISS; scientific satellites like the Hubble; Earth observation satellites from companies like Planet Labs, Umbra, and HawkEye 360; GPS; miniature CubeSats for education and research; and military/defense satellites.

Loading next visibility...
Identifier
60238, 2024-128D
Orbit
LEO
Country
Flag of PTPT / POR
Related business
Manufacturer
ISTL
Mission
Operational Amateur Technology
Bus & Motor
CUBESAT 1U, Unknown motor
Mass
1 kg wet, 1 kg dry
Launch date (UTC)
2024-07-09 (2 years ago)
Launch vehicle
ARIANE 62
Launch site
French Guiana (FRGUI)
Object type
Payload
Rocket body
Debris
Shape & HBR
Box, 0.1 m
Radar Cross Section
0.015 m², Small (<0.1 m²)

Expand to show TLE details & history
Last TLE update: 18 hours ago

TLE from 18 hours ago
0 ISTSAT-1
1 60238U 24128D   26034.34699061  .00009646  00000-0  59206-3 0  9999
2 60238  61.9907 318.6845 0052160 105.4265 255.2599 15.09546446 86246
Epoch: 2026-02-03T08:19Z
TLE epoch observation values (Epoch: 2026-02-03T08:19:39.988Z)
Latitude
-0.00008°
Longitude
60.23861°
Altitude
548.716 km
Speed
7.583 km/s
True Right ascension
21h 14m 44s
True Declination
0° 00' 00"
Sunlit
Object was in daylight at epoch
Visualization orbit readout
Latitude
Unknown
Longitude
Unknown
Altitude
Unknown
Speed
Unknown
Apparent Right ascension
Unknown
Apparent Declination
Unknown
Sunlit
N/A
Visualization observer readout
Local Sidereal Time
03:54:37
Azimuth
Unknown
Elevation
Unknown
Doppler factor
Unknown
Orbital elements
Apogee altitude
572.579 km
Perigee altitude
500.445 km
Semi-major axis
6,914.649 km
Eccentricity
0.00522
Inclination
61.9907°
RAAN
318.6845°
Arg. of periapsis
105.4265°
True anomaly
254.68283°
Mean anomaly
255.2599°
Eccentric anomaly
254.97127°
Mean motion
3.77475 °/min
Orbital period
95.37 mins
BSTAR
0.00059206
Loading maneuver chart data...
Computing Atmospheric mass density...
Loading historical data...
Loading historical data...
Loading historical data...
Loading historical data...
Loading historical data...
Loading historical data...
Loading historical data...

Documentation

Showing up to 5 results
|